• In Uzbekistan
  • List of Countries
  • For 7 days
  • Water Temperature
  • Satellite Maps
  • Weather Map
  • Weather Widgets
  • user-avatar
    Login

    Hourly Weather Gaborone

    Today, 20 April, Saturday

    Time Temperature Precipitation Wind Pressure Humidity
    00:00 +24°C° 0 mm 1 mps 680 mmHg 40%
    01:00 +24°C° 0 mm 1 mps 680 mmHg 42%
    02:00 +23°C° 0 mm 1 mps 680 mmHg 44%
    03:00 +22°C° 0 mm 1 mps 680 mmHg 47%
    04:00 +22°C° 0 mm 1 mps 680 mmHg 50%
    05:00 +21°C° 0 mm 1 mps 679 mmHg 53%
    06:00 +21°C° 0 mm 2 mps 680 mmHg 54%
    07:00 +22°C° 0 mm 3 mps 680 mmHg 55%
    08:00 +22°C° 0 mm 3 mps 681 mmHg 56%
    09:00 +25°C° 0 mm 3 mps 681 mmHg 50%
    10:00 +27°C° 0 mm 4 mps 681 mmHg 44%
    11:00 +29°C° 0 mm 4 mps 682 mmHg 37%
    12:00 +32°C° 0 mm 4 mps 681 mmHg 33%
    13:00 +33°C° 0 mm 3 mps 680 mmHg 29%
    14:00 +34°C° 0 mm 3 mps 680 mmHg 24%
    15:00 +34°C° 0 mm 3 mps 679 mmHg 24%
    16:00 +32°C° 0 mm 2 mps 679 mmHg 23%
    17:00 +32°C° 0 mm 2 mps 678 mmHg 23%
    18:00 +30°C° 0 mm 2 mps 678 mmHg 25%
    19:00 +29°C° 0 mm 1 mps 678 mmHg 28%
    20:00 +27°C° 0 mm 1 mps 679 mmHg 31%
    21:00 +26°C° 0 mm 1 mps 679 mmHg 32%
    22:00 +26°C° 0 mm 2 mps 679 mmHg 33%
    23:00 +25°C° 0 mm 2 mps 679 mmHg 34%

    Tomorrow, 21 April, Sunday

    Time Temperature Precipitation Wind Pressure Humidity
    00:00 +24°C° 0 mm 2 mps 678 mmHg 37%
    01:00 +24°C° 0 mm 1 mps 678 mmHg 40%
    02:00 +23°C° 0 mm 1 mps 678 mmHg 43%
    03:00 +22°C° 0 mm 1 mps 678 mmHg 44%
    04:00 +22°C° 0 mm 1 mps 678 mmHg 46%
    05:00 +21°C° 0 mm 1 mps 677 mmHg 48%
    06:00 +22°C° 0 mm 1 mps 678 mmHg 47%
    07:00 +23°C° 0 mm 1 mps 678 mmHg 47%
    08:00 +23°C° 0 mm 2 mps 679 mmHg 46%
    09:00 +25°C° 0 mm 2 mps 679 mmHg 41%
    10:00 +27°C° 0 mm 3 mps 679 mmHg 36%
    11:00 +29°C° 0 mm 3 mps 680 mmHg 32%
    12:00 +31°C° 0 mm 3 mps 679 mmHg 28%
    13:00 +33°C° 0 mm 4 mps 678 mmHg 25%
    14:00 +34°C° 0 mm 4 mps 678 mmHg 22%
    15:00 +33°C° 0 mm 3 mps 677 mmHg 22%
    16:00 +33°C° 0 mm 3 mps 677 mmHg 22%
    17:00 +31°C° 0 mm 2 mps 677 mmHg 22%
    18:00 +30°C° 0 mm 2 mps 677 mmHg 24%
    19:00 +29°C° 0 mm 2 mps 677 mmHg 26%
    20:00 +28°C° 0 mm 2 mps 677 mmHg 28%
    21:00 +27°C° 0 mm 3 mps 677 mmHg 31%
    22:00 +27°C° 0 mm 3 mps 677 mmHg 34%
    23:00 +26°C° 0 mm 3 mps 677 mmHg 37%

    Day after tomorrow, 22 April, Monday

    Time Temperature Precipitation Wind Pressure Humidity
    00:00 +25°C° 0 mm 3 mps 677 mmHg 40%
    01:00 +24°C° 0 mm 3 mps 676 mmHg 43%
    02:00 +22°C° 0 mm 3 mps 676 mmHg 45%
    03:00 +22°C° 0 mm 3 mps 676 mmHg 51%
    04:00 +21°C° 0 mm 3 mps 676 mmHg 57%
    05:00 +21°C° 0 mm 3 mps 676 mmHg 62%
    06:00 +21°C° 0.1 mm 4 mps 677 mmHg 64%
    07:00 +21°C° 0.1 mm 4 mps 677 mmHg 66%
    08:00 +21°C° 0.1 mm 5 mps 678 mmHg 68%
    09:00 +23°C° 0 mm 5 mps 678 mmHg 63%
    10:00 +25°C° 0 mm 5 mps 678 mmHg 58%
    11:00 +26°C° 0 mm 6 mps 679 mmHg 53%
    12:00 +27°C° 0 mm 6 mps 678 mmHg 47%
    13:00 +29°C° 0 mm 5 mps 677 mmHg 41%
    14:00 +30°C° 0 mm 5 mps 677 mmHg 35%
    15:00 +30°C° 0 mm 5 mps 677 mmHg 34%
    16:00 +30°C° 0 mm 4 mps 676 mmHg 33%
    17:00 +30°C° 0 mm 4 mps 676 mmHg 32%
    18:00 +29°C° 0 mm 4 mps 676 mmHg 36%
    19:00 +27°C° 0 mm 5 mps 676 mmHg 39%
    20:00 +26°C° 0 mm 6 mps 676 mmHg 42%
    21:00 +24°C° 0 mm 6 mps 676 mmHg 46%
    22:00 +25°C° 0 mm 5 mps 676 mmHg 50%
    23:00 +23°C° 0 mm 5 mps 677 mmHg 53%

    23 April, Tuesday

    Time Temperature Precipitation Wind Pressure Humidity
    00:00 +22°C° 0.1 mm 5 mps 676 mmHg 58%
    01:00 +21°C° 0.1 mm 5 mps 676 mmHg 62%
    02:00 +21°C° 0.1 mm 5 mps 676 mmHg 67%
    03:00 +21°C° 0.2 mm 5 mps 676 mmHg 69%
    04:00 +20°C° 0.2 mm 5 mps 677 mmHg 71%
    05:00 +20°C° 0.2 mm 4 mps 677 mmHg 73%
    06:00 +20°C° 0.3 mm 5 mps 677 mmHg 74%
    07:00 +20°C° 0.3 mm 5 mps 678 mmHg 76%
    08:00 +20°C° 0.3 mm 5 mps 679 mmHg 77%
    09:00 +20°C° 0.3 mm 5 mps 679 mmHg 75%
    10:00 +20°C° 0.3 mm 5 mps 679 mmHg 74%
    11:00 +21°C° 0.3 mm 6 mps 679 mmHg 73%
    12:00 +22°C° 0 mm 5 mps 678 mmHg 68%
    13:00 +23°C° 0 mm 5 mps 678 mmHg 63%
    14:00 +25°C° 0 mm 5 mps 677 mmHg 58%
    15:00 +25°C° 0 mm 4 mps 677 mmHg 57%
    16:00 +25°C° 0 mm 4 mps 677 mmHg 56%
    17:00 +25°C° 0 mm 4 mps 677 mmHg 55%
    18:00 +23°C° 0.9 mm 4 mps 677 mmHg 62%
    19:00 +22°C° 0.9 mm 3 mps 677 mmHg 68%
    20:00 +20°C° 0.9 mm 2 mps 677 mmHg 75%
    21:00 +20°C° 0.4 mm 2 mps 677 mmHg 77%
    22:00 +19°C° 0.4 mm 2 mps 677 mmHg 80%
    23:00 +19°C° 0.4 mm 2 mps 677 mmHg 82%

    24 April, Wednesday

    Time Temperature Precipitation Wind Pressure Humidity
    00:00 +19°C° 0.1 mm 2 mps 677 mmHg 82%
    01:00 +19°C° 0.1 mm 3 mps 677 mmHg 81%
    02:00 +19°C° 0.1 mm 3 mps 677 mmHg 81%
    03:00 +18°C° 0 mm 3 mps 677 mmHg 81%
    04:00 +18°C° 0 mm 2 mps 677 mmHg 81%
    05:00 +18°C° 0 mm 2 mps 677 mmHg 81%
    06:00 +18°C° 0.1 mm 3 mps 677 mmHg 79%
    07:00 +19°C° 0.1 mm 3 mps 678 mmHg 77%
    08:00 +20°C° 0.1 mm 4 mps 679 mmHg 75%
    09:00 +21°C° 0 mm 4 mps 679 mmHg 69%
    10:00 +23°C° 0 mm 4 mps 679 mmHg 63%
    11:00 +25°C° 0 mm 5 mps 680 mmHg 56%
    12:00 +27°C° 0 mm 5 mps 679 mmHg 50%
    13:00 +29°C° 0 mm 4 mps 678 mmHg 44%
    14:00 +30°C° 0 mm 4 mps 678 mmHg 38%
    15:00 +30°C° 0 mm 3 mps 678 mmHg 36%
    16:00 +31°C° 0 mm 3 mps 678 mmHg 35%
    17:00 +31°C° 0 mm 2 mps 677 mmHg 34%
    18:00 +29°C° 0 mm 2 mps 678 mmHg 37%
    19:00 +28°C° 0 mm 1 mps 678 mmHg 40%
    20:00 +27°C° 0 mm 1 mps 678 mmHg 43%
    21:00 +26°C° 0.1 mm 1 mps 678 mmHg 45%
    22:00 +26°C° 0.1 mm 1 mps 678 mmHg 48%
    23:00 +25°C° 0.1 mm 1 mps 678 mmHg 50%

    25 April, Thursday

    Time Temperature Precipitation Wind Pressure Humidity
    00:00 +25°C° 0 mm 1 mps 677 mmHg 53%
    01:00 +24°C° 0 mm 1 mps 677 mmHg 55%
    02:00 +23°C° 0 mm 1 mps 677 mmHg 58%
    03:00 +23°C° 0.2 mm 1 mps 677 mmHg 61%
    04:00 +22°C° 0.2 mm 1 mps 677 mmHg 64%
    05:00 +22°C° 0.2 mm 1 mps 677 mmHg 68%
    06:00 +21°C° 0 mm 2 mps 678 mmHg 66%
    07:00 +21°C° 0 mm 2 mps 678 mmHg 65%
    08:00 +22°C° 0 mm 3 mps 679 mmHg 64%
    09:00 +25°C° 0 mm 3 mps 679 mmHg 57%
    10:00 +27°C° 0 mm 3 mps 680 mmHg 51%
    11:00 +29°C° 0 mm 3 mps 680 mmHg 45%
    12:00 +30°C° 0 mm 3 mps 679 mmHg 39%
    13:00 +31°C° 0 mm 3 mps 679 mmHg 34%
    14:00 +34°C° 0 mm 3 mps 678 mmHg 29%
    15:00 +32°C° 0 mm 2 mps 678 mmHg 29%
    16:00 +32°C° 0 mm 2 mps 678 mmHg 30%
    17:00 +31°C° 0 mm 1 mps 678 mmHg 31%
    18:00 +30°C° 0 mm 1 mps 678 mmHg 32%
    19:00 +28°C° 0 mm 0 mps 678 mmHg 33%
    20:00 +27°C° 0 mm 0 mps 678 mmHg 35%
    21:00 +27°C° 0 mm 0 mps 678 mmHg 36%
    22:00 +28°C° 0 mm 1 mps 679 mmHg 37%
    23:00 +28°C° 0 mm 1 mps 679 mmHg 38%
    Show more